Weather History for KSTJ - January, 2014

Change the Weather History Date:

Saturday, January 11, 2014

  Actual Average Record
Temperature  
Mean Temperature 35 °F 27 °F  
Max Temperature 44 °F 37 °F 60 °F (2006)
Min Temperature 25 °F 17 °F -19 °F (1918)
Degree Days  
Heating Degree Days 30 38  
Month to date heating degree days 536 421  
Since 1 July heating degree days 2964 2634  
Cooling Degree Days 0 0  
Month to date cooling degree days 0 0  
Year to date cooling degree days 0 0  
Moisture  
Dew Point 29 °F    
Average Humidity 81    
Maximum Humidity 100    
Minimum Humidity 62    
Precipitation  
Precipitation 0.00 in 0.01 in 0.39 in (1949)
Month to date precipitation 0.01 0.20  
Year to date precipitation 0.01 0.20  
Sea Level Pressure  
Sea Level Pressure 29.80 in    
Wind  
Wind Speed 9 mph (WSW)    
Max Wind Speed 21 mph    
Max Gust Speed 25 mph    
Visibility 8 miles    
Events      
T = Trace of Precipitation, MM = Missing Value Source: NWS Daily Summary

Daily Weather History Graph

Daily Weather History Graph

Search for Another Location

Airport or City:

Trip Planner

Search our weather history database for the weather conditions in past years. The results will help you decide how hot, cold, wet, or windy it might be!

Date:

Astronomy

Jan. 11, 2014 Rise Set
Actual Time 7:40 AM CST 5:15 PM CST
Civil Twilight 7:10 AM CST 5:45 PM CST
Nautical Twilight 6:36 AM CST 6:18 PM CST
Astronomical Twilight 6:04 AM CST 6:51 PM CST
Moon 1:59 PM CST (1/11) 3:45 AM CST (1/11)
Length of Visible Light 10h 34m
Length of Day
9h 35m
Waxing Gibbous, 83% of the Moon is Illuminated
Jan 11
Waxing Gibbous
Jan 15
Full
Jan 23
Last Quarter
Jan 30
New
Feb 6
First Quarter

Hourly Weather History & Observations

Time (CST) Temp. Windchill Dew Point Humidity Pressure Visibility Wind Dir Wind Speed Gust Speed Precip Events Conditions
12:53 AM 34.0 °F 27.2 °F 30.9 °F 89% 29.65 in 8.0 mi West 8.1 mph - N/A   Mostly Cloudy
1:07 AM 33.1 °F 26.1 °F 30.9 °F 92% 29.64 in 8.0 mi West 8.1 mph - N/A   Mostly Cloudy
1:31 AM 33.1 °F 26.9 °F 30.9 °F 92% 29.65 in 8.0 mi West 6.9 mph - N/A   Mostly Cloudy
1:53 AM 33.1 °F 26.9 °F 30.9 °F 92% 29.68 in 8.0 mi West 6.9 mph - N/A   Overcast
2:11 AM 32.0 °F 27.5 °F 30.0 °F 92% 29.67 in 7.0 mi SW 4.6 mph - N/A   Mostly Cloudy
2:26 AM 32.0 °F 25.6 °F 30.0 °F 92% 29.67 in 7.0 mi WSW 6.9 mph - N/A   Mostly Cloudy
2:53 AM 32.0 °F 24.2 °F 30.0 °F 92% 29.70 in 5.0 mi West 9.2 mph - N/A   Overcast
3:53 AM 30.9 °F 27.5 °F 28.9 °F 92% 29.72 in 5.0 mi SSW 3.5 mph - N/A   Scattered Clouds
4:53 AM 28.9 °F 22.8 °F 27.0 °F 92% 29.73 in 4.0 mi South 5.8 mph - N/A   Clear
5:53 AM 25.0 °F 18.1 °F 24.1 °F 96% 29.75 in 4.0 mi South 5.8 mph - N/A   Clear
6:53 AM 26.1 °F 19.4 °F 24.1 °F 92% 29.76 in 5.0 mi South 5.8 mph - N/A   Mostly Cloudy
7:53 AM 28.0 °F 20.8 °F 26.1 °F 92% 29.77 in 6.0 mi South 6.9 mph - N/A   Overcast
8:53 AM 30.9 °F 26.2 °F 28.0 °F 89% 29.80 in 9.0 mi SSW 4.6 mph - N/A   Mostly Cloudy
9:53 AM 36.0 °F 27.5 °F 28.0 °F 73% 29.81 in 10.0 mi West 12.7 mph - N/A   Clear
10:53 AM 39.0 °F 29.9 °F 28.9 °F 67% 29.83 in 10.0 mi NW 17.3 mph - N/A   Clear
11:53 AM 41.0 °F 32.2 °F 30.0 °F 65% 29.83 in 10.0 mi NW 18.4 mph 25.3 mph N/A   Clear
12:53 PM 42.1 °F 34.5 °F 30.9 °F 65% 29.83 in 10.0 mi NW 15.0 mph 24.2 mph N/A   Clear
1:53 PM 43.0 °F 36.4 °F 32.0 °F 65% 29.83 in 10.0 mi WNW 12.7 mph - N/A   Clear
2:53 PM 43.0 °F 35.7 °F 30.9 °F 62% 29.86 in 10.0 mi NW 15.0 mph 23.0 mph N/A   Clear
3:53 PM 43.0 °F 37.2 °F 30.9 °F 62% 29.88 in 10.0 mi WNW 10.4 mph - N/A   Clear
4:53 PM 39.9 °F 35.1 °F 30.9 °F 70% 29.89 in 10.0 mi West 6.9 mph - N/A   Clear
5:53 PM 34.0 °F 28.8 °F 28.0 °F 79% 29.90 in 10.0 mi South 5.8 mph - N/A   Clear
6:53 PM 36.0 °F 32.1 °F 28.9 °F 76% 29.90 in 10.0 mi WSW 4.6 mph - N/A   Clear
7:53 PM 30.0 °F 24.1 °F 27.0 °F 88% 29.92 in 10.0 mi South 5.8 mph - N/A   Clear
8:53 PM 30.9 °F 25.2 °F 27.0 °F 85% 29.91 in 10.0 mi SSE 5.8 mph - N/A   Clear
9:53 PM 28.9 °F 21.9 °F 26.1 °F 89% 29.91 in 10.0 mi South 6.9 mph - N/A   Clear
10:53 PM 30.0 °F 25.2 °F 26.1 °F 85% 29.90 in 10.0 mi SSW 4.6 mph - N/A   Clear
11:53 PM 28.9 °F 21.9 °F 25.0 °F 85% 29.88 in 10.0 mi South 6.9 mph - N/A   Clear